GFSFLT1_sfc_30mbdewp_111.txt.gz
Dewpoint
32 40 42 44 44 47 48 48 50 52 50 46 52 55 58 61 61 61 63 62 64 64 63 65 66 66 65 62 63 64 62 60
38 42 44 45 46 47 48 48 49 50 49 46 40 51 54 57 60 61 63 63 63 64 63 64 65 64 64 65 64 64 63 62
38 40 41 43 43 44 45 45 47 48 48 49 49 47 49 52 57 58 62 64 64 64 64 64 65 64 64 64 64 63 63 63
37 38 39 40 40 42 42 43 44 45 47 48 50 50 49 52 54 55 58 63 64 65 64 65 64 64 63 64 63 62 61 63
36 37 37 38 39 41 42 43 43 43 45 46 48 49 50 45 51 53 56 61 63 65 65 65 65 64 63 63 63 63 61 59
37 36 36 36 37 39 41 41 42 42 44 46 46 47 49 51 51 55 56 58 63 63 64 64 65 64 64 63 63 63 62 60
36 35 35 35 36 38 39 40 40 41 42 43 44 45 47 49 52 53 57 57 61 63 63 64 64 64 63 64 63 63 62 61
35 34 34 34 35 36 37 38 38 39 40 40 41 43 45 47 49 53 55 57 60 62 62 64 64 64 64 64 63 62 62 61
32 32 33 33 34 35 36 36 36 37 38 38 39 40 42 45 48 51 54 58 59 62 63 63 64 64 64 64 63 62 62 62
31 32 32 32 33 34 35 35 35 35 36 37 38 39 41 44 46 50 53 57 59 63 63 63 63 63 63 63 63 63 63 62
31 31 31 32 32 33 34 34 34 34 35 35 36 38 41 43 46 48 54 58 59 62 63 63 63 63 63 63 63 63 62 62
30 30 30 30 31 31 31 31 32 32 33 34 36 38 41 45 51 53 57 60 59 61 62 62 62 62 62 62 62 62 61 61
29 29 30 29 29 30 29 30 30 31 32 33 35 38 40 44 48 58 57 57 59 59 62 61 61 61 61 61 60 61 60 59
28 28 29 29 29 29 28 28 29 30 31 32 33 36 37 38 43 48 50 58 57 58 60 61 61 61 60 61 61 60 59 59
28 28 28 28 28 28 28 27 28 28 30 31 31 33 35 36 39 41 43 47 57 60 60 60 60 60 60 60 59 59 59 59
27 27 27 28 28 28 28 28 28 29 28 29 30 32 33 34 35 36 37 39 40 43 51 54 58 59 59 59 59 58 57 55
26 27 29 28 28 27 28 29 29 29 28 28 29 30 31 32 33 32 32 33 34 35 35 37 40 44 49 56 57 55 54 50
26 27 28 28 28 29 28 30 30 29 29 29 29 29 29 29 31 31 30 30 30 32 33 33 32 35 40 47 44 42 41 40
26 27 27 28 29 29 29 30 30 29 29 29 29 29 29 28 27 28 28 28 28 28 29 31 32 32 32 34 35 34 33 32

GFSFLT1_sfc_30mbdewp_114.txt.gz
Dewpoint
35 39 43 44 46 47 48 50 52 53 53 54 51 48 60 63 63 62 63 65 64 65 65 66 65 65 65 64 63 64 63 63
40 43 44 44 45 46 47 48 49 50 50 51 51 49 49 58 61 63 64 64 65 64 65 67 66 64 64 64 64 63 63 63
39 40 42 42 42 44 44 44 45 47 47 49 50 51 53 53 54 56 61 64 64 65 65 65 66 65 63 64 65 64 63 63
37 37 39 40 41 42 42 43 44 45 46 46 47 49 51 52 50 50 59 61 64 64 65 64 65 64 63 62 64 63 61 62
36 37 37 37 39 41 42 43 43 42 44 45 46 47 47 49 51 52 54 57 58 64 63 65 65 65 63 62 63 63 61 60
36 35 35 36 38 39 41 41 41 41 42 43 44 45 46 47 48 50 52 55 56 61 63 65 64 65 64 62 62 63 62 60
35 35 35 35 37 38 39 39 39 40 40 41 42 42 42 44 45 47 49 52 55 60 62 64 65 64 64 63 63 63 61 61
32 32 33 34 35 36 37 37 37 38 38 39 39 39 40 41 42 45 46 49 52 56 60 61 63 64 64 64 64 63 62 61
31 31 32 33 34 34 36 35 35 36 36 36 37 37 38 39 41 42 45 47 50 53 59 60 63 63 63 63 63 63 63 62
28 29 31 32 33 33 34 34 33 34 35 35 35 36 37 38 39 41 43 45 48 51 55 60 63 63 63 62 63 62 63 62
28 29 31 32 32 31 32 33 32 32 33 33 34 35 36 38 40 41 43 44 47 50 53 58 62 63 63 63 62 62 62 62
28 29 30 31 30 30 31 31 31 30 31 32 33 35 35 38 39 41 44 47 48 49 53 57 61 62 63 63 62 61 61 62
28 29 30 30 29 29 30 30 30 30 30 31 32 33 34 36 37 40 43 46 54 52 55 58 59 61 62 62 61 61 60 60
28 29 29 29 29 29 30 30 29 29 29 30 31 32 33 34 36 37 39 44 48 56 58 58 59 59 59 62 62 62 62 61
28 28 28 28 28 28 29 31 31 30 29 30 30 31 31 32 34 35 35 38 40 42 52 56 58 61 61 61 61 61 61 60
27 27 27 27 27 28 30 30 31 31 30 30 30 30 30 31 32 32 33 33 35 38 38 39 41 45 48 59 61 61 60 56
26 26 27 27 27 29 29 30 30 31 31 30 31 30 29 29 29 30 30 31 30 32 34 35 35 35 39 51 60 59 53 48
26 26 28 27 28 29 28 29 31 30 30 30 30 31 29 28 27 27 27 28 29 28 30 32 33 33 34 37 42 44 43 43
26 27 27 28 29 29 30 30 29 29 29 29 30 30 30 30 28 27 26 26 26 26 27 28 30 32 33 32 33 33 32 32

GFSFLT1_sfc_30mbdewp_117.txt.gz
Dewpoint
44 45 46 47 46 46 46 48 48 49 51 52 52 53 52 55 62 65 65 66 65 66 65 65 65 65 65 65 64 64 62 62
44 44 43 44 44 44 44 45 45 46 46 47 47 49 50 53 54 55 56 65 65 64 66 66 66 64 63 65 64 63 63 63
42 42 41 43 43 43 43 43 44 45 45 45 47 48 50 50 53 54 55 55 61 65 65 65 65 65 63 64 64 62 63 63
39 39 40 41 41 42 42 42 42 43 44 44 45 45 47 48 48 49 51 52 55 60 64 63 65 64 64 63 63 63 62 63
36 36 37 38 39 40 40 40 40 41 41 41 42 43 43 45 45 46 47 48 50 53 57 62 63 63 63 64 64 63 63 61
35 35 36 37 37 38 39 39 39 39 39 39 39 40 41 42 43 43 44 46 48 49 53 56 62 63 63 63 63 63 63 61
33 34 35 35 36 36 37 36 37 37 37 37 37 37 37 38 39 40 41 44 46 48 50 53 58 62 63 63 62 62 63 62
32 33 33 34 34 35 34 35 34 34 34 35 35 35 36 36 38 39 40 41 43 45 48 51 54 60 62 63 63 62 62 62
31 32 32 32 32 33 33 32 32 33 32 33 33 34 34 35 36 37 38 40 41 43 45 48 50 53 60 61 61 61 62 62
31 31 31 31 31 31 31 31 31 31 31 31 32 33 33 34 36 36 37 39 40 42 44 46 49 51 56 60 60 59 63 63
29 31 31 30 30 30 31 31 30 30 30 30 31 32 33 34 35 36 38 39 41 42 43 44 47 50 54 60 58 59 60 62
29 30 30 30 30 29 30 30 30 29 29 30 31 32 33 34 35 36 38 39 41 42 44 46 47 49 52 59 59 58 58 59
29 29 29 29 28 28 29 29 30 29 29 30 31 32 32 33 33 35 36 37 39 42 46 48 49 49 52 59 61 59 58 59
28 28 27 27 27 27 28 29 29 29 30 30 30 31 31 31 32 33 34 35 37 39 40 46 51 51 53 57 59 60 60 59
27 27 27 27 26 28 28 28 29 29 30 31 30 31 30 30 30 31 32 33 33 35 38 39 43 47 54 58 58 57 57 59
26 26 26 26 27 27 28 28 29 31 30 30 30 31 31 29 28 28 29 30 32 32 33 35 36 37 41 48 55 56 57 58
25 25 25 26 27 27 27 28 29 30 30 29 31 31 31 30 29 28 27 27 29 30 30 32 33 33 36 43 54 57 53 48
24 24 26 27 28 28 28 28 29 29 28 29 29 30 30 30 30 29 28 27 27 27 28 29 30 32 32 34 35 35 36 38
24 25 26 27 28 29 29 29 28 27 27 27 28 28 29 29 29 28 28 27 27 27 27 28 28 29 32 31 31 31 30 31

GFSFLT1_sfc_30mbdewp_120.txt.gz
Dewpoint
46 46 45 44 44 45 45 45 46 46 47 47 48 49 49 53 54 57 59 63 62 64 66 66 65 65 65 66 65 65 63 62
43 43 43 43 43 43 43 43 44 43 44 44 45 45 46 48 51 52 53 57 59 60 65 65 65 64 64 65 65 63 62 62
42 42 42 42 42 42 41 41 41 41 42 42 44 43 47 46 48 46 49 48 50 53 55 60 64 64 64 63 62 62 63 63
39 39 39 39 39 39 39 39 39 39 39 40 40 41 42 43 42 43 44 45 47 49 52 55 58 63 63 63 62 61 60 62
36 36 36 37 38 38 38 38 37 37 38 37 38 38 38 39 40 41 41 43 43 46 49 50 53 56 62 62 63 62 62 59
36 36 35 35 36 36 35 36 35 35 35 36 36 35 36 37 38 38 39 41 42 44 46 49 51 52 56 62 63 62 61 59
34 34 33 33 33 34 33 33 33 33 34 34 34 34 34 34 35 36 38 39 40 42 44 46 49 51 54 59 62 62 60 59
34 33 32 32 31 31 31 31 31 31 32 31 32 33 33 33 34 35 36 37 38 39 41 42 44 46 50 53 57 62 61 60
34 33 32 30 30 30 30 30 30 30 30 30 31 31 32 33 34 34 35 36 37 38 39 41 42 44 46 49 51 59 62 60
33 32 30 30 29 30 30 31 30 30 30 30 30 31 31 32 33 34 35 36 37 38 40 41 42 42 44 47 50 51 61 61
32 31 31 30 29 29 29 30 30 30 29 29 30 30 31 32 32 33 35 35 37 38 39 40 41 43 43 45 48 51 57 59
29 29 28 28 28 28 28 29 29 28 29 29 29 30 31 32 32 33 34 35 36 36 37 38 40 42 44 46 47 50 52 59
28 27 27 27 27 28 28 27 27 29 29 29 29 30 30 30 30 31 32 33 34 35 36 37 40 42 46 47 48 49 50 57
27 26 26 26 26 27 27 26 27 29 29 30 30 31 31 29 29 29 30 30 32 33 34 36 38 41 42 50 50 49 51 56
26 25 24 25 26 26 26 27 27 29 29 29 29 30 31 31 30 30 29 29 30 31 32 33 35 36 37 42 50 50 51 57
24 24 25 25 26 26 26 28 28 29 29 28 28 30 31 31 30 30 30 29 29 29 30 30 32 32 33 36 45 53 53 57
24 24 25 25 26 27 27 27 28 28 27 27 28 28 29 29 29 29 28 27 28 29 29 29 29 31 32 38 42 41 43 42
23 24 25 25 26 27 26 26 27 26 26 26 26 26 26 27 27 27 26 26 26 26 28 29 29 30 32 32 33 33 34 34
23 23 24 26 27 27 27 25 23 22 23 23 24 24 23 25 26 25 25 25 25 24 25 27 29 29 31 31 30 29 30 31

GFSFLT1_sfc_30mbdewp_126.txt.gz
Dewpoint
40 39 39 39 38 38 38 37 37 39 41 43 44 44 46 50 46 49 47 48 48 50 57 60 60 60 61 63 62 63 64 64
37 37 36 35 36 35 34 35 35 36 37 37 41 39 44 45 42 46 44 43 46 46 47 51 55 58 59 59 58 58 58 63
35 35 34 34 33 33 34 33 33 33 34 36 37 38 42 43 39 40 40 41 43 43 45 48 50 52 54 59 58 57 58 60
33 33 32 32 32 32 32 32 32 32 32 33 33 36 36 37 36 37 37 39 40 43 44 46 47 49 50 53 55 59 55 60
34 33 33 32 32 32 31 31 30 30 31 31 31 32 32 34 34 35 36 38 40 40 41 43 44 47 48 50 53 55 58 56
32 33 33 32 32 31 31 31 31 30 31 31 31 30 31 32 33 33 35 37 38 39 40 41 41 43 44 45 47 49 53 54
33 33 32 32 31 30 29 29 30 31 31 31 31 30 30 31 32 32 34 34 36 37 38 39 39 40 41 42 44 45 48 52
37 37 35 34 33 31 30 29 30 30 30 30 30 30 30 30 30 31 32 33 34 35 36 37 38 38 40 41 42 42 44 46
36 34 33 31 29 29 29 29 29 30 30 29 29 29 29 30 30 30 31 32 33 34 36 37 37 39 40 41 42 42 43 44
34 31 30 28 27 28 29 28 28 28 29 30 30 29 29 29 29 30 31 32 32 33 34 35 36 37 38 39 41 42 42 43
30 28 27 27 27 28 28 28 28 28 29 29 29 30 30 30 29 29 30 30 31 32 32 34 34 36 37 37 39 41 43 43
27 26 26 26 27 27 26 28 28 28 28 27 28 29 29 30 29 28 29 30 30 31 31 32 33 34 35 36 38 40 41 43
26 26 26 26 26 26 27 27 27 27 28 28 27 28 28 28 28 28 28 28 28 29 30 31 31 32 32 34 35 36 38 41
25 25 25 25 26 26 27 27 27 27 27 25 25 25 26 25 27 27 27 27 27 28 28 29 30 30 32 32 33 34 35 38
24 24 25 26 26 26 25 25 26 26 26 26 25 25 25 26 26 26 26 26 26 26 27 29 29 30 31 32 32 35 35 36
24 24 24 24 24 23 23 22 22 24 23 24 23 25 25 25 25 25 25 24 25 26 26 28 28 29 30 31 32 34 35 38
24 24 24 24 24 25 26 23 21 22 21 21 21 22 23 23 23 23 24 24 25 25 25 26 27 28 30 31 31 30 31 32
23 24 24 25 25 26 25 24 22 21 20 20 20 20 19 19 19 20 20 23 24 23 23 24 24 27 29 29 29 28 28 29
23 23 23 23 24 25 26 24 22 21 20 20 20 19 18 19 19 19 19 21 21 21 22 23 23 26 28 27 27 26 26 27

GFSFLT1_sfc_30mbdewp_132.txt.gz
Dewpoint
35 34 33 33 33 34 34 36 37 36 36 40 41 40 43 44 42 43 44 44 46 47 49 51 54 58 61 62 61 62 61 60
33 32 33 32 33 33 33 34 35 34 33 33 35 35 40 41 38 40 41 42 44 44 45 47 49 50 54 57 59 62 60 59
32 33 35 35 35 34 34 34 35 35 33 33 34 35 36 37 36 37 39 41 42 42 44 44 46 46 48 51 54 56 59 60
33 34 35 35 34 34 34 34 34 35 35 34 34 33 33 33 33 34 37 39 40 42 42 43 44 44 44 47 49 51 53 56
33 34 34 35 35 35 35 35 34 33 34 33 34 33 32 33 33 34 36 37 38 39 41 41 41 42 43 44 44 46 48 50
35 37 38 35 34 33 34 33 33 32 33 34 33 33 32 32 33 34 34 35 36 37 38 38 39 40 40 42 43 44 45 46
38 38 35 32 31 32 32 32 31 32 33 33 33 32 32 32 32 32 32 33 34 35 36 36 37 38 39 39 40 41 42 43
39 36 33 30 31 31 30 31 31 32 32 31 31 31 31 30 31 31 31 31 32 33 34 34 34 35 36 38 39 39 40 41
37 34 32 30 30 30 30 30 30 30 31 30 30 30 30 29 30 30 30 30 30 31 31 32 34 35 35 36 37 38 39 40
36 32 30 29 29 30 31 31 30 30 30 30 29 29 29 28 29 29 28 29 29 29 30 31 32 33 34 34 35 36 37 38
34 31 29 28 29 29 31 30 30 30 30 29 28 28 28 28 28 28 28 28 28 28 29 29 29 30 31 32 33 34 35 36
31 29 28 28 28 29 29 29 30 30 29 29 29 28 28 28 27 27 27 27 27 27 27 28 28 28 29 30 30 31 32 34
29 28 28 27 28 27 28 29 29 29 29 29 29 28 28 27 27 27 27 26 27 26 27 27 27 27 27 28 28 31 32 33
27 27 27 27 25 23 24 26 27 28 28 28 28 27 27 27 27 27 27 26 26 25 26 26 28 28 26 27 28 28 30 31
27 26 26 26 23 22 18 18 19 21 23 23 24 24 24 25 26 26 27 26 25 25 25 25 27 27 26 26 27 26 26 29
26 25 25 23 23 19 17 18 19 19 19 21 22 23 22 22 23 23 24 24 24 24 24 24 26 26 28 26 26 25 25 26
24 24 24 23 19 17 18 20 21 21 21 22 22 22 22 22 22 22 23 23 23 23 23 23 24 25 26 26 26 25 24 24
25 25 26 23 22 20 20 21 21 21 21 21 21 21 21 21 22 21 22 23 22 21 22 23 23 24 22 24 25 25 23 23
26 26 25 25 24 23 22 21 21 21 21 21 21 20 20 20 20 20 21 22 21 20 19 21 21 22 21 20 21 23 23 22